Voltar ao catálogo

EDRS-C

AtivoComunicaçõesGEO
NORAD 44475·PAYLOAD·🇪🇺 EU

Lançado Aug 6, 2019 de Guiana Space Centre

Loading…

TLE

AtualizadoSource: Space-Track

Época: Sep 14, 2026, 12:46 UTC

1 44475U 19049A   26257.53206206 -.00000270  00000-0  00000-0 0  9993
2 44475   0.0124 183.2334 0001107 347.2347 157.0850  1.00271718 26108

Acompanhe EDRS-C em tempo real com AllMySat

Download on the App Store